This is the latest recevied weather packets stored in our database for station/object KB2EAR-13. If no packets are shown the sender has not sent any weather packets the latest 10 day(s).
| Time | Temp. | Humidity | Pressure | Rain* | Wind** | Luminosity | Snow |
|---|---|---|---|---|---|---|---|
| 1777502417 | 13.89° C | 68% | - | 0 mm | - | - | - |
| 1777502118 | 13.89° C | 68% | - | 0 mm | - | - | - |
| 1777501817 | 13.89° C | 68% | 1011.4 hPa | 0 mm | - | - | - |
| 1777501517 | 13.89° C | 69% | 1011.2 hPa | 0 mm | - | - | - |
| 1777501217 | 13.89° C | 69% | 1011.4 hPa | 0 mm | - | - | - |
| 1777500918 | 13.89° C | 70% | 1011.3 hPa | 0 mm | - | - | - |
| 1777500617 | 13.89° C | 71% | 1011.3 hPa | 0 mm | - | - | - |
| 1777500318 | 13.89° C | 73% | 1011.2 hPa | 0 mm | - | - | - |
| 1777500110 | 13.89° C | 73% | 1011.3 hPa | 0 mm | - | - | - |
| 1777500038 | 13.89° C | 73% | 1011.3 hPa | 0 mm | - | - | - |
| 1777499718 | 13.89° C | 73% | 1011.3 hPa | 0 mm | - | - | - |
| 1777499418 | 13.89° C | 73% | 1011.4 hPa | 0 mm | - | - | - |
| 1777499117 | 13.89° C | 73% | 1011.2 hPa | 0 mm | - | - | - |
| 1777498818 | 14.44° C | 73% | 1011.4 hPa | 0 mm | - | - | - |
| 1777498518 | 14.44° C | 72% | 1011.5 hPa | 0 mm | - | - | - |
| 1777498217 | 15° C | 71% | 1011.7 hPa | 0 mm | - | - | - |
| 1777497918 | 15° C | 69% | 1011.6 hPa | 0 mm | - | - | - |
| 1777497617 | 15.56° C | 66% | 1011.4 hPa | 0 mm | - | - | - |
| 1777497318 | 15.56° C | 64% | 1011.3 hPa | 0 mm | - | - | - |
| 1777497017 | 15.56° C | 63% | 1011.4 hPa | 0 mm | - | - | - |
| 1777496718 | 15.56° C | 63% | 1011.4 hPa | 0 mm | - | - | - |
| 1777496417 | 16.11° C | 63% | 1011.6 hPa | 0 mm | - | - | - |
| 1777496117 | 16.11° C | 63% | 1011.8 hPa | 0 mm | - | - | - |
| 1777495818 | 16.11° C | 62% | 1011.8 hPa | 0 mm | - | - | - |
| 1777495517 | 16.67° C | 62% | 1011.8 hPa | 0 mm | - | - | - |
* Rain latest hour (hover to see other rain measurements)
** Current wind speed in m/s (hover to see current wind gust speed)